User: anonymous
Location: Mentone
(34.5413°N, 85.5351°W)
Time: 00:58:21
(UTC-05:00)
Language:

Cosmos 2150 Rocket - Orbit

View from above orbital plane
View from above orbital plane
View from above satellite
View from above satellite

Ground track
Ground track

The orbit data is extracted from the following two-line orbital elements,

1 21419U 91041B   14273.61942880  .00000154  00000-0  64391-4 0  6283
2 21419 074.0398 311.0315 0039901 120.2144 007.7592 14.33572670218504
Epoch (UTC): 30 September 2014 14:51:58
Eccentricity: 0.0039901
inclination: 74.0398°
perigee height: 751 km
apogee height: 808 km
right ascension of ascending node: 311.0315°
argument of perigee: 120.2144°
revolutions per day: 14.33572670
mean anomaly at epoch: 7.7592°
orbit number at epoch: 21850

The dashed part of the orbit path shows where the satellite is in the earth's shadow,  

DLR